ソーホー彗星

P/2003 T12 ( SOHO )

English version
Home page
Updated on September 23, 2012

---------------------------------------------------------------------

・ プロフィール

発見日 2003年10月9日
発見光度 8.8等
発見者 J. Danaher (SOHO C3 images)

・ 軌道要素

Epoch 2003 Oct. 8.0 TT = JDT 2452920.5
T 2003 Oct. 16.29108 TT                                 MPC
q   0.5887597            (2000.0)            P               Q
n   0.23821301     Peri.  214.67727     +0.83029416     -0.55731726
a   2.5772649      Node   179.17511     +0.54689311     +0.81369934
e   0.7715564      Incl.   12.08001     +0.10732904     +0.16519945
P   4.14
From 62 observations 2003 Oct. 9-2012 Mar. 4, mean residual 1".8.

・ 星図

・ 光度変化

        m1 = 20.5 + 5 logΔ + 25.0 log r

---------------------------------------------------------------------

軌道要素はM.P.E.C. 2012-S31に掲載されたものです。
星図はステラナビゲータ Ver.8 (アストロアーツ) で作成したものです。
光度グラフはComet for Windowsで作成したものです。

---------------------------------------------------------------------

Copyright(C) Seiichi Yoshida (comet@aerith.net). All rights reserved.